EW8295 Weather Reports


Display with metric or nautical units.
time (UTC)temp
F
wind
direction
speed
MPH
gust
MPH
rain 1hr
in
rain 24hr
in
rain mn
in
humidity
%
barometer
mb
20260506192327 60 214 0.0 1.0 0.00 0.00 0.00 93 1008.2
20260506191832 60 214 0.0 0.0 0.00 0.00 0.00 93 1008.2
20260506191356 60 214 0.0 3.0 0.00 0.00 0.00 93 1008.5
20260506190822 60 211 0.0 3.0 0.00 0.00 0.00 92 1008.5
20260506190347 60 163 0.0 2.0 0.00 0.00 0.00 92 1008.5
20260506185830 60 264 0.0 2.0 0.00 0.00 0.00 92 1008.5
20260506185317 60 265 0.0 3.0 0.00 0.00 0.00 92 1008.6
20260506184820 60 265 1.0 3.0 0.00 0.00 0.00 92 1008.9
20260506184326 60 274 0.0 1.0 0.00 0.00 0.00 91 1008.9
20260506183827 60 274 0.0 5.0 0.00 0.00 0.00 91 1008.9
20260506183332 60 303 1.0 5.0 0.00 0.00 0.00 91 1008.8
20260506182834 60 156 0.0 2.0 0.00 0.00 0.00 90 1008.7
20260506182323 61 122 0.0 3.0 0.00 0.00 0.00 90 1008.6
20260506181825 61 120 0.0 2.0 0.00 0.00 0.00 90 1008.5
20260506181352 61 116 0.0 2.0 0.00 0.00 0.00 89 1008.5
20260506180819 61 116 0.0 4.0 0.00 0.00 0.00 89 1008.6
20260506180321 62 118 1.0 4.0 0.00 0.00 0.00 88 1008.6
20260506175826 62 119 0.0 2.0 0.00 0.00 0.00 87 1008.9
20260506175349 62 118 0.0 2.0 0.00 0.00 0.00 86 1008.9
20260506174815 63 71 0.0 0.0 0.00 0.00 0.00 85 1009.1
20260506174324 63 71 0.0 0.0 0.00 0.00 0.00 84 1009.2
20260506173826 64 69 0.0 1.0 0.00 0.00 0.00 84 1009.3
20260506173331 64 67 0.0 1.0 0.00 0.00 0.00 83 1009.5
20260506172818 64 226 0.0 0.0 0.00 0.00 0.00 82 1009.7
20260506172320 65 226 0.0 0.0 0.00 0.00 0.00 81 1009.8
20260506171824 65 226 0.0 0.0 0.00 0.00 0.00 80 1009.7
20260506171328 65 227 0.0 3.0 0.00 0.00 0.00 79 1009.9
20260506170819 65 225 0.0 4.0 0.00 0.00 0.00 77 1010.0
20260506170321 66 207 1.0 3.0 0.00 0.00 0.00 77 1010.0
20260506165826 66 184 0.0 4.0 0.00 0.00 0.00 76 1010.1
20260506165330 67 212 1.0 4.0 0.00 0.00 0.00 74 1010.0
20260506164819 67 219 0.0 4.0 0.00 0.00 0.00 74 1009.9
20260506164323 67 198 1.0 5.0 0.00 0.00 0.00 73 1009.8
20260506163829 68 233 1.0 5.0 0.00 0.00 0.00 73 1009.8
20260506163331 68 234 1.0 3.0 0.00 0.00 0.00 74 1009.8
20260506162837 68 255 0.0 4.0 0.00 0.00 0.00 73 1009.7
20260506162319 68 232 1.0 4.0 0.00 0.00 0.00 74 1009.7
20260506161824 68 207 1.0 5.0 0.00 0.00 0.00 73 1009.7
20260506161328 68 178 2.0 7.0 0.00 0.00 0.00 73 1009.9
20260506160832 68 200 2.0 7.0 0.00 0.00 0.00 73 1009.9
20260506160337 68 217 0.0 5.0 0.00 0.00 0.00 73 1010.1
20260506155818 68 227 3.0 7.0 0.00 0.00 0.00 72 1010.1
20260506155323 68 196 0.0 8.0 0.00 0.00 0.00 72 1010.3
20260506154826 68 253 3.0 7.0 0.00 0.00 0.00 71 1010.2
20260506154328 68 259 1.0 7.0 0.00 0.00 0.00 71 1010.1
20260506153834 69 201 2.0 5.0 0.00 0.00 0.00 71 1010.1
20260506153336 69 239 2.0 5.0 0.00 0.00 0.00 70 1010.1
20260506152838 69 263 1.0 4.0 0.00 0.00 0.00 71 1010.0
20260506152323 69 262 0.0 4.0 0.00 0.00 0.00 71 1009.9
20260506151825 69 236 2.0 7.0 0.00 0.00 0.00 70 1010.0
20260506151347 69 205 2.0 7.0 0.00 0.00 0.00 70 1010.0
20260506150847 69 252 2.0 6.0 0.00 0.00 0.00 71 1010.1
20260506150331 69 220 1.0 6.0 0.00 0.00 0.00 71 1010.3
20260506145833 69 194 1.0 5.0 0.00 0.00 0.00 72 1010.1
20260506145319 69 179 1.0 5.0 0.00 0.00 0.00 72 1010.2
20260506144821 69 218 2.0 5.0 0.00 0.00 0.00 72 1010.3
20260506144343 69 206 1.0 5.0 0.00 0.00 0.00 72 1010.4
20260506143847 69 157 2.0 8.0 0.00 0.00 0.00 72 1010.4
20260506143330 68 216 3.0 8.0 0.00 0.00 0.00 74 1010.2
20260506142830 68 227 1.0 8.0 0.00 0.00 0.00 75 1010.4
20260506142337 68 220 2.0 8.0 0.00 0.00 0.00 74 1010.3
20260506141841 67 205 1.0 8.0 0.00 0.00 0.00 75 1010.5
20260506141327 67 192 3.0 6.0 0.00 0.00 0.00 75 1010.5
20260506140828 67 247 2.0 8.0 0.00 0.00 0.00 75 1010.6
20260506140318 67 238 0.0 6.0 0.00 0.00 0.00 76 1010.7
20260506135820 67 224 1.0 4.0 0.00 0.00 0.00 76 1010.5
20260506135344 67 205 1.0 4.0 0.00 0.00 0.00 76 1010.3
20260506134824 67 218 1.0 4.0 0.00 0.00 0.00 76 1010.4
20260506134352 66 211 0.0 10.0 0.00 0.00 0.00 77 1010.3
20260506133814 66 236 2.0 10.0 0.00 0.00 0.00 78 1010.2
20260506133324 66 174 0.0 5.0 0.00 0.00 0.00 78 1010.3
20260506132829 66 232 2.0 5.0 0.00 0.00 0.00 78 1010.4
20260506132331 66 223 0.0 2.0 0.00 0.00 0.00 79 1010.4
20260506131836 66 194 0.0 3.0 0.00 0.00 0.00 80 1010.4
20260506131320 65 229 1.0 3.0 0.00 0.00 0.00 80 1010.4
20260506130824 65 210 1.0 3.0 0.00 0.00 0.00 80 1010.4
20260506130332 65 103 1.0 4.0 0.00 0.00 0.00 80 1010.7
20260506125819 65 186 1.0 5.0 0.00 0.00 0.00 81 1010.7
20260506125325 65 224 2.0 5.0 0.00 0.00 0.00 81 1010.9
20260506124829 65 217 1.0 4.0 0.00 0.00 0.00 82 1010.9
20260506124316 64 207 1.0 4.0 0.00 0.00 0.00 83 1011.0
20260506123825 64 113 0.0 4.0 0.00 0.00 0.00 84 1011.0
20260506123327 64 203 1.0 4.0 0.00 0.00 0.00 84 1011.0
20260506122835 63 248 0.0 3.0 0.00 0.00 0.00 84 1011.1
20260506122357 63 175 0.0 2.0 0.00 0.00 0.00 86 1010.9
20260506121821 62 189 0.0 4.0 0.00 0.00 0.00 85 1011.0
20260506121325 62 189 0.0 4.0 0.00 0.00 0.00 86 1010.9
20260506120849 62 220 0.0 3.0 0.00 0.00 0.00 86 1011.0
20260506120334 62 235 0.0 3.0 0.00 0.00 0.00 86 1011.0
20260506115818 61 151 0.0 1.0 0.00 0.00 0.00 87 1010.9
20260506115326 61 151 0.0 1.0 0.00 0.00 0.00 87 1011.0
20260506114830 61 184 0.0 1.0 0.00 0.00 0.00 87 1010.9
20260506114353 61 194 0.0 7.0 0.00 0.00 0.00 87 1011.0
20260506113835 61 186 1.0 7.0 0.00 0.00 0.00 88 1010.8
20260506113315 61 112 0.0 1.0 0.00 0.00 0.00 88 1010.7
20260506112820 60 198 0.0 0.0 0.00 0.00 0.00 88 1010.7
20260506112322 60 198 0.0 3.0 0.00 0.00 0.00 88 1010.9
20260506111826 60 217 0.0 3.0 0.00 0.00 0.00 88 1011.1
20260506111330 60 204 0.0 1.0 0.00 0.00 0.00 88 1011.2
20260506110834 60 233 0.0 3.0 0.00 0.00 0.00 88 1011.1
20260506110320 59 238 0.0 3.0 0.00 0.00 0.00 88 1011.1
20260506105840 59 157 0.0 0.0 0.00 0.00 0.00 88 1011.1
20260506105324 59 156 0.0 0.0 0.00 0.00 0.00 88 1011.0
20260506104830 59 157 0.0 0.0 0.00 0.00 0.00 88 1011.1
20260506104332 59 157 0.0 5.0 0.00 0.00 0.00 88 1011.1
20260506103816 59 116 0.0 5.0 0.00 0.00 0.00 88 1011.0
20260506103345 59 224 1.0 3.0 0.00 0.00 0.00 88 1010.9
20260506102851 59 211 0.0 3.0 0.00 0.00 0.00 88 1010.9
20260506102332 59 198 0.0 2.0 0.00 0.00 0.00 88 1010.8
20260506101819 59 199 0.0 2.0 0.00 0.00 0.00 88 1010.8
20260506101343 59 199 0.0 4.0 0.00 0.00 0.00 87 1010.9
20260506100829 59 202 0.0 4.0 0.00 0.00 0.00 87 1010.8
20260506100333 59 186 0.0 1.0 0.00 0.00 0.00 87 1010.8
20260506095819 59 186 0.0 2.0 0.00 0.00 0.00 87 1010.8
20260506095323 59 163 0.0 2.0 0.00 0.00 0.00 87 1010.7
20260506094827 59 167 0.0 0.0 0.00 0.00 0.00 87 1010.8
20260506094351 59 167 0.0 2.0 0.00 0.00 0.00 87 1010.7
20260506093835 59 192 0.0 3.0 0.00 0.00 0.00 87 1010.7
20260506093322 59 214 0.0 3.0 0.00 0.00 0.00 87 1010.8
20260506092828 59 174 0.0 1.0 0.00 0.00 0.00 87 1011.0
20260506092330 59 157 0.0 3.0 0.00 0.00 0.00 86 1010.9
20260506091832 59 159 0.0 3.0 0.00 0.00 0.00 86 1010.9
20260506091319 59 178 0.0 2.0 0.00 0.00 0.00 86 1010.8
20260506090822 59 180 0.0 2.0 0.00 0.00 0.00 86 1010.8
20260506090324 59 201 0.0 2.0 0.00 0.00 0.00 86 1010.8
20260506085835 59 200 0.0 0.0 0.00 0.00 0.00 85 1010.8
20260506085339 59 193 0.0 0.0 0.00 0.00 0.00 85 1010.9
20260506084843 59 101 0.0 1.0 0.00 0.00 0.00 85 1011.0
20260506084326 60 168 0.0 1.0 0.00 0.00 0.00 85 1011.1
20260506083833 60 168 0.0 0.0 0.00 0.00 0.00 85 1010.9
20260506083316 60 168 0.0 0.0 0.00 0.00 0.00 85 1010.9
20260506082825 60 168 0.0 1.0 0.00 0.00 0.00 85 1010.9
20260506082328 60 149 0.0 3.0 0.00 0.00 0.00 84 1010.8
20260506081831 60 176 0.0 3.0 0.00 0.00 0.00 84 1010.8
20260506081318 60 178 0.0 2.0 0.00 0.00 0.00 84 1010.8
20260506080825 60 158 0.0 0.0 0.00 0.00 0.00 84 1010.9
20260506080327 60 158 0.0 0.0 0.00 0.00 0.00 84 1010.9
20260506073316 60 165 0.0 3.0 0.00 0.00 0.00 82 1011.0
20260506072821 60 128 0.0 3.0 0.00 0.00 0.00 82 1011.0
20260506072323 60 136 0.0 1.0 0.00 0.00 0.00 82 1011.1
20260506071828 60 136 0.0 2.0 0.00 0.00 0.00 82 1011.1
20260506071331 61 134 0.0 2.0 0.00 0.00 0.00 81 1011.0
20260506070856 61 186 0.0 2.0 0.00 0.00 0.00 81 1010.9
20260506070325 61 139 0.0 4.0 0.00 0.00 0.00 81 1010.9
20260506062348 61 206 0.0 1.0 0.00 0.00 0.00 80 1010.8
20260506061853 61 208 0.0 3.0 0.00 0.00 0.00 80 1010.8
20260506061339 61 169 0.0 0.0 0.00 0.00 0.00 80 1010.8
20260506060824 61 159 0.0 3.0 0.00 0.00 0.00 80 1010.8
20260506060326 61 194 0.0 3.0 0.00 0.00 0.00 80 1010.8
20260506051326 63 188 1.0 4.0 0.00 0.00 0.00 78 1011.3
20260506050831 63 208 1.0 4.0 0.00 0.00 0.00 77 1011.3
20260506050335 63 240 0.0 6.0 0.00 0.00 0.00 77 1011.4
20260506044834 63 190 2.0 6.0 0.00 0.00 0.00 76 1011.4
20260506044336 63 207 2.0 6.0 0.00 0.00 0.00 76 1011.4
20260506043821 64 169 2.0 4.0 0.00 0.00 0.00 76 1011.5
20260506043327 64 239 1.0 6.0 0.00 0.00 0.00 75 1011.4
20260506042831 64 211 1.0 6.0 0.00 0.00 0.00 75 1011.4
20260506042315 64 232 2.0 6.0 0.00 0.00 0.00 75 1011.5
20260506041823 64 188 3.0 6.0 0.00 0.00 0.00 75 1011.4
20260506041327 64 167 1.0 5.0 0.00 0.00 0.00 74 1011.4
20260506040832 64 217 1.0 5.0 0.00 0.00 0.00 74 1011.5
20260506040316 64 198 0.0 3.0 0.00 0.00 0.00 73 1011.5
20260506035829 64 210 0.0 5.0 0.00 0.00 0.00 73 1011.4
20260506035337 64 219 3.0 5.0 0.00 0.00 0.00 73 1011.5
20260506034822 64 194 1.0 4.0 0.00 0.00 0.00 73 1011.5
20260506034328 64 214 1.0 5.0 0.00 0.00 0.00 72 1011.6
20260506033833 64 225 2.0 8.0 0.00 0.00 0.00 72 1011.5
20260506033317 64 200 3.0 8.0 0.00 0.00 0.00 71 1011.6
20260506032825 64 232 1.0 6.0 0.00 0.00 0.00 71 1011.6
20260506032331 64 231 2.0 8.0 0.00 0.00 0.00 71 1011.6
20260506031834 64 214 3.0 8.0 0.00 0.00 0.00 71 1011.5
20260506031318 64 221 2.0 6.0 0.00 0.00 0.00 71 1011.4
20260506030825 64 211 2.0 4.0 0.00 0.00 0.00 70 1011.3
20260506030330 64 221 1.0 5.0 0.00 0.00 0.00 70 1011.2
20260506025834 64 223 1.0 4.0 0.00 0.00 0.00 70 1011.3
20260506025336 64 173 0.0 4.0 0.00 0.00 0.00 70 1011.3
20260506024819 64 188 1.0 4.0 0.00 0.00 0.00 70 1011.3
20260506024327 64 252 0.0 4.0 0.00 0.00 0.00 70 1011.3
20260506023833 64 191 0.0 4.0 0.00 0.00 0.00 70 1011.3
20260506023335 64 217 0.0 5.0 0.00 0.00 0.00 71 1011.2
20260506022817 64 230 1.0 5.0 0.00 0.00 0.00 70 1011.2
20260506022341 64 194 1.0 4.0 0.00 0.00 0.00 70 1011.3
20260506021825 64 218 0.0 3.0 0.00 0.00 0.00 70 1011.3
20260506021329 64 214 0.0 3.0 0.00 0.00 0.00 70 1011.3
20260506020832 64 216 0.0 7.0 0.00 0.00 0.00 70 1011.3
20260506020320 64 184 1.0 7.0 0.00 0.00 0.00 69 1011.2
20260506015843 64 223 0.0 3.0 0.00 0.00 0.00 69 1011.2
20260506015325 64 208 0.0 4.0 0.00 0.00 0.00 69 1011.2
20260506014827 64 202 1.0 4.0 0.00 0.00 0.00 69 1011.1
20260506014331 64 229 1.0 4.0 0.00 0.00 0.00 69 1011.1
20260506013820 64 236 2.0 5.0 0.00 0.00 0.00 68 1011.1
20260506013322 64 204 2.0 5.0 0.00 0.00 0.00 68 1011.1
20260506012824 64 184 0.0 4.0 0.00 0.00 0.00 68 1011.0
20260506012332 64 185 0.0 3.0 0.00 0.00 0.00 67 1010.8
20260506011834 65 209 0.0 4.0 0.00 0.00 0.00 67 1010.9
20260506011319 65 141 0.0 4.0 0.00 0.00 0.00 67 1010.8
20260506010825 65 213 0.0 4.0 0.00 0.00 0.00 66 1010.7
20260506010350 65 219 1.0 5.0 0.00 0.00 0.00 66 1010.7
20260506005817 65 181 1.0 5.0 0.00 0.00 0.00 66 1010.8
20260506005319 65 215 1.0 5.0 0.00 0.00 0.00 65 1010.8
20260506004824 65 222 2.0 6.0 0.00 0.00 0.00 65 1010.7
20260506004348 65 170 0.0 6.0 0.00 0.00 0.00 65 1010.6
20260506003829 65 194 3.0 7.0 0.00 0.00 0.00 64 1010.4
20260506003356 66 227 1.0 4.0 0.00 0.00 0.00 64 1010.3
20260506002819 66 226 0.0 4.0 0.00 0.00 0.00 64 1010.2
20260506002326 66 219 0.0 6.0 0.00 0.00 0.00 64 1010.3
20260506001827 66 246 3.0 6.0 0.00 0.00 0.00 64 1010.1
20260506001335 66 188 1.0 5.0 0.00 0.00 0.00 64 1010.1
20260506000822 66 171 2.0 5.0 0.00 0.00 0.00 64 1010.0
20260506000331 66 200 2.0 9.0 0.00 0.00 0.00 64 1009.9
20260505235855 67 197 2.0 5.0 0.00 0.00 0.00 64 1009.8
20260505235319 67 191 1.0 5.0 0.00 0.00 0.00 63 1009.7
20260505234827 67 224 1.0 4.0 0.00 0.00 0.00 63 1009.7
20260505234331 68 213 1.0 5.0 0.00 0.00 0.00 63 1009.6
20260505233837 68 171 0.0 5.0 0.00 0.00 0.00 62 1009.5
20260505233321 68 224 0.0 6.0 0.00 0.00 0.00 62 1009.6
20260505232830 68 231 1.0 6.0 0.00 0.00 0.00 62 1009.2
20260505232335 69 201 1.0 8.0 0.00 0.00 0.00 61 1009.3
20260505231819 69 252 2.0 8.0 0.00 0.00 0.00 61 1009.3
20260505231323 69 215 1.0 7.0 0.00 0.00 0.00 61 1009.1
20260505230832 70 219 3.0 7.0 0.00 0.00 0.00 59 1009.1
20260505230340 70 256 2.0 8.0 0.00 0.00 0.00 59 1009.0
20260505225823 70 243 2.0 8.0 0.00 0.00 0.00 59 1008.9
20260505225345 70 250 2.0 7.0 0.00 0.00 0.00 59 1008.7
20260505224829 71 217 2.0 7.0 0.00 0.00 0.00 58 1008.7
20260505224333 71 205 1.0 8.0 0.00 0.00 0.00 58 1008.7
20260505223823 71 225 2.0 6.0 0.00 0.00 0.00 58 1008.4
20260505223332 71 192 0.0 6.0 0.00 0.00 0.00 57 1008.3
20260505222834 72 235 1.0 7.0 0.00 0.00 0.00 57 1008.5
20260505222320 72 217 1.0 7.0 0.00 0.00 0.00 57 1008.7
20260505221824 72 221 2.0 4.0 0.00 0.00 0.00 57 1008.7
20260505221329 73 217 2.0 3.0 0.00 0.00 0.00 57 1008.7
20260505220817 73 160 0.0 3.0 0.00 0.00 0.00 56 1008.8
20260505220326 73 217 0.0 4.0 0.00 0.00 0.00 55 1008.8
20260505215831 73 126 1.0 4.0 0.00 0.00 0.00 55 1008.8
20260505215357 74 137 0.0 3.0 0.00 0.00 0.00 55 1008.7
20260505214820 74 137 0.0 4.0 0.00 0.00 0.00 55 1008.7
20260505214323 74 221 1.0 5.0 0.00 0.00 0.00 56 1008.7
20260505213832 74 277 1.0 5.0 0.00 0.00 0.00 55 1008.5
20260505213340 74 211 2.0 5.0 0.00 0.00 0.00 55 1008.6
20260505212820 74 213 1.0 7.0 0.00 0.00 0.00 54 1008.5
20260505212329 75 191 2.0 7.0 0.00 0.00 0.00 54 1008.6
20260505211833 75 127 0.0 4.0 0.00 0.00 0.00 54 1008.7
20260505211322 75 121 1.0 5.0 0.00 0.00 0.00 52 1008.6
20260505210827 75 180 1.0 5.0 0.00 0.00 0.00 53 1008.6
20260505210332 75 221 1.0 8.0 0.00 0.00 0.00 53 1008.6
20260505205854 76 38 1.0 6.0 0.00 0.00 0.00 52 1008.5
20260505205315 76 209 1.0 6.0 0.00 0.00 0.00 52 1008.5
20260505204820 76 223 0.0 5.0 0.00 0.00 0.00 53 1008.5
20260505204326 76 228 1.0 5.0 0.00 0.00 0.00 52 1008.5
20260505203828 76 157 1.0 5.0 0.00 0.00 0.00 52 1008.5
20260505203330 76 277 2.0 7.0 0.00 0.00 0.00 52 1008.6
20260505202815 77 239 3.0 7.0 0.00 0.00 0.00 52 1008.6
20260505202320 77 336 1.0 6.0 0.00 0.00 0.00 52 1008.5
20260505201827 77 132 1.0 5.0 0.00 0.00 0.00 52 1008.7
20260505201318 77 176 1.0 6.0 0.00 0.00 0.00 52 1008.7
20260505200826 78 224 0.0 6.0 0.00 0.00 0.00 51 1008.7
20260505200330 78 217 2.0 6.0 0.00 0.00 0.00 52 1008.8
20260505195835 78 193 1.0 6.0 0.00 0.00 0.00 51 1008.6
20260505195321 78 190 0.0 6.0 0.00 0.00 0.00 51 1008.5
20260505194824 78 175 1.0 7.0 0.00 0.00 0.00 50 1008.7
20260505194353 79 221 3.0 7.0 0.00 0.00 0.00 49 1008.8
20260505193819 79 234 2.0 5.0 0.00 0.00 0.00 49 1008.8
20260505193321 80 231 1.0 5.0 0.00 0.00 0.00 49 1008.7
20260505192826 80 190 1.0 7.0 0.00 0.00 0.00 49 1008.8